WGS F5 (USA 243)

Last updated on Tue Sep 22 2026 00:03:12 GMT+0000 (Coordinated Universal Time)

1 39168U 13024A 26264.02128002 .00000000 00000+0 00000+0 0 9990 2 39168 0.0228 167.9948 0000572 7.9595 139.1228 1.00269303 48130
UTC large
Height (km)
Speed (km/s)
/
Latitude / Longitude
Inclination (degrees)
Orbital Period (minutes)
Azimuth
Elevation
Range (km)
Doppler Factor

Next 0 passes for location: London (51.5072 / 0.1276)

No passes found over London.
WGS F5 (USA 243)